Regional Weather Roundup
Issued by NWS Kansas City/Pleasant Hill, MO

Home | Current Version | Previous Version | Graphics & Text | Print | Product List | Glossary Off
Versions: 1 2 3 4 5 6 7 8 9 10 11 12 13 14 15 16 17 18 19 20 21 22 23 24 25 26 27 28 29 30 31 32 33 34 35 36 37 38 39 40 41 42 43 44 45 46 47 48 49 50

000
ASUS43 KEAX 271104
RWREAX

WEATHER ROUNDUP FOR EASTERN KANSAS AND NORTHWEST MISSOURI
NATIONAL WEATHER SERVICE KANSAS CITY/PLEASANT HILL MO
500 AM CST TUE JAN 27 2015

KSZ040-057-103>105-MOZ028-029-037-043-271200-
...KANSAS CITY METROPOLITAN AREA...

CITY           SKY/WX    TMP DP  RH WIND       PRES   REMARKS
K.C. INTL      CLEAR     37  32  82 NW3       30.09R
K.C. DOWNTOWN  CLEAR     34  30  85 SW3       30.10R
LEES SUMMIT    CLEAR     39  31  72 CALM      30.09R
OLATHE - IXD   CLEAR     32  29  88 NW6       30.09S WCI  26
OLATHE - OJC   CLEAR     38  31  76 N5        30.08R WCI  34
LAWRENCE       CLEAR     24  21  88 NW6       30.10S WCI  17

$$

MOZ001>008-011>017-020>025-030>033-038>040-044>046-053-054-271200-
...NORTHERN AND CENTRAL MISSOURI...

CITY           SKY/WX    TMP DP  RH WIND       PRES   REMARKS
ST. JOSEPH     CLEAR     28  25  88 CALM      30.09S
MOSBY          SUNNY     30  30 100 CALM      30.09R
WARRENSBURG    CLEAR     36  32  87 NW5       30.09R WCI  32
WHITEMAN AFB   CLEAR     35  31  85 N7        30.07R WCI  29
CLINTON        CLEAR     37  32  81 N6        30.09R WCI  33
SEDALIA        CLEAR     36  31  82 W6        30.08R WCI  31
WARSAW         NOT AVBL
MARSHALL       CLEAR     37  34  87 NW6       30.07R WCI  33
CHILLICOTHE      N/A     30  28  92 NW3       30.09R
MOBERLY        CLEAR     32  28  86 W6        30.06R WCI  26
KIRKSVILLE     CLEAR     33  30  88 N7        30.05R WCI  27

$$

MOZ041-047>049-056>058-063>065-088>090-097-271200-
...EASTERN AND SOUTHERN MISSOURI...

CITY           SKY/WX    TMP DP  RH WIND       PRES   REMARKS
ST. LOUIS INTL MOCLDY    36  31  82 NW8       30.00R WCI  30
SPIRIT OF STL  CLEAR     36  32  85 NW7       30.01R WCI  30
COLUMBIA       CLEAR     33  31  92 NW7       30.04R WCI  27
JEFFERSON CITY CLEAR     31  29  92 CALM      30.06R
MEXICO         CLEAR     37  34  87 NW8       30.03R WCI  31
HANNIBAL       MOCLDY    36  30  80 NW7       30.04R WCI  30
ROLLA          CLEAR     34  30  85 NW6       30.01R WCI  29
LEBANON        CLEAR     39  32  75 NW5       30.05R
OSAGE BEACH    CLEAR     39  30  70 NW5       30.05R
SPRINGFIELD    CLEAR     36  30  79 N5        30.06R WCI  32
JOPLIN         CLEAR     40  32  73 CALM      30.08R
WEST PLAINS    CLEAR     41  32  70 N6        30.02R

$$

IAZ060-094-KSZ022-034>040-054-083-096-NEZ052-066-093-271200-
...KANSAS...SOUTHEAST NEBRASKA AND IOWA...

CITY           SKY/WX    TMP DP  RH WIND       PRES   REMARKS
TOPEKA         CLEAR     29  25  85 CALM      30.10S
MANHATTAN      PTCLDY    26  24  92 CALM      30.10R
EMPORIA        CLEAR     39  29  67 W5        30.10R
CHANUTE        CLEAR     31  29  92 NW5       30.10R WCI  26
WICHITA        CLEAR     37  29  72 CALM      30.10R
OMAHA          CLEAR     29  28  96 CALM      30.09R
LINCOLN        PTCLDY    24  20  84 CALM      30.10R
FALLS CITY     CLEAR     27  24  89 CALM      30.09R
LAMONI         CLEAR     31  29  92 NW5       30.06R WCI  26
DES MOINES     CLEAR     33  29  85 N7        30.07R WCI  27

$$



USA.gov is the U.S. government's official web portal to all federal, state and local government web resources and services.